Glenwood, MN

9:18 PM CST on February 25, 2017 (GMT -0600)
Glenwood Municipal

Weather History for KGHW - August, 2014

Change the Weather History Date:

Monday, August 18, 2014

  Actual Average Record
Temperature  
Mean Temperature 72 °F -  
Max Temperature 80 °F 80 °F 98 °F (2003)
Min Temperature 64 °F 56 °F 37 °F (2003)
Cooling Degree Days 7    
Growing Degree Days 22 (Base 50)    
Moisture  
Dew Point 65 °F    
Average Humidity 85    
Maximum Humidity 100    
Minimum Humidity 61    
Precipitation  
Precipitation 0.54 in - - ()
Sea Level Pressure  
Sea Level Pressure 29.77 in    
Wind  
Wind Speed 4 mph (WSW)    
Max Wind Speed 14 mph    
Max Gust Speed 18 mph    
Visibility 6 miles    
Events Fog , Rain , Thunderstorm    
Averages and records for this station are not official NWS values.
T = Trace of Precipitation, MM = Missing Value Source: NWS Daily Summary

Daily Weather History Graph

Daily Weather History Graph

Search for Another Location

Airport or City:

Trip Planner

Search our weather history database for the weather conditions in past years. The results will help you decide how hot, cold, wet, or windy it might be!

Date:

Astronomy

Aug. 18, 2014 Rise Set
Actual Time 6:25 AM CDT 8:23 PM CDT
Civil Twilight 5:53 AM CDT 8:55 PM CDT
Nautical Twilight 5:13 AM CDT 9:35 PM CDT
Astronomical Twilight 4:30 AM CDT 10:18 PM CDT
Moon 12:29 AM CDT (8/18) 3:32 PM CDT (8/18)
Length of Visible Light 15h 02m
Length of Day
13h 58m
Last Quarter, 38% of the Moon is Illuminated
Aug 18
Last Quarter
Aug 25
New
Sep 2
First Quarter
Sep 8
Full
Sep 15
Last Quarter

Hourly Weather History & Observations

Time (CDT) Temp. Heat Index Dew Point Humidity Pressure Visibility Wind Dir Wind Speed Gust Speed Precip Events Conditions
12:14 AM 64.4 °F - 64.4 °F 100% 29.89 in 0.2 mi Calm Calm - N/A Fog Fog
12:34 AM 64.4 °F - 64.4 °F 100% 29.87 in 0.2 mi Calm Calm - N/A Fog Fog
12:54 AM 64.4 °F - 64.4 °F 100% 29.86 in 0.2 mi ENE 4.6 mph - N/A Fog Fog
1:14 AM 64.4 °F - 64.4 °F 100% 29.85 in 0.2 mi East 4.6 mph - N/A Fog Fog
1:34 AM 64.4 °F - 64.4 °F 100% 29.84 in 0.2 mi Calm Calm - N/A Fog Fog
1:54 AM 64.4 °F - 64.4 °F 100% 29.83 in 0.2 mi East 6.9 mph - N/A Fog Fog
2:14 AM 64.4 °F - 64.4 °F 100% 29.83 in 0.2 mi ENE 4.6 mph - N/A Fog Fog
2:34 AM 64.4 °F - 64.4 °F 100% 29.83 in 0.2 mi East 5.8 mph - N/A Fog Fog
2:54 AM 64.4 °F - 64.4 °F 100% 29.83 in 0.2 mi Calm Calm - N/A Fog Fog
3:14 AM 64.4 °F - 64.4 °F 100% 29.83 in 0.2 mi Calm Calm - N/A Fog Fog
3:35 AM 64.4 °F - 64.4 °F 100% 29.83 in 0.2 mi Calm Calm - N/A Fog Fog
3:54 AM 64.4 °F - 64.4 °F 100% 29.80 in 0.5 mi ESE 4.6 mph - N/A Rain Light Rain
4:14 AM 64.4 °F - 64.4 °F 100% 29.79 in 0.5 mi SE 3.5 mph - N/A Rain Light Rain
4:34 AM 64.4 °F - 64.4 °F 100% 29.81 in 0.5 mi Calm Calm - N/A Fog Fog
4:54 AM 64.4 °F - 64.4 °F 100% 29.80 in 0.2 mi Calm Calm - N/A Fog Fog
5:14 AM 66.2 °F - 64.4 °F 94% 29.81 in 0.2 mi Calm Calm - N/A Fog Fog
5:34 AM 66.2 °F - 64.4 °F 94% 29.80 in 0.2 mi Calm Calm - N/A Fog Fog
5:54 AM 66.2 °F - 64.4 °F 94% 29.80 in 0.2 mi Calm Calm - N/A Fog Fog
6:14 AM 66.2 °F - 64.4 °F 94% 29.80 in 0.5 mi Calm Calm - N/A Fog Fog
6:34 AM 66.2 °F - 66.2 °F 100% 29.80 in 0.5 mi Calm Calm - N/A Fog Fog
6:54 AM 66.2 °F - 66.2 °F 100% 29.80 in 0.5 mi Calm Calm - N/A Fog Fog
7:14 AM 66.2 °F - 66.2 °F 100% 29.79 in 0.8 mi SSW 4.6 mph - N/A   Overcast
7:34 AM 66.2 °F - 66.2 °F 100% 29.79 in 2.5 mi Calm Calm - N/A   Mostly Cloudy
7:54 AM 68.0 °F - 66.2 °F 94% 29.80 in 4.0 mi West 4.6 mph - N/A   Mostly Cloudy
8:14 AM 68.0 °F - 66.2 °F 94% 29.80 in 5.0 mi WSW 8.1 mph - N/A   Mostly Cloudy
8:34 AM 68.0 °F - 66.2 °F 94% 29.80 in 4.0 mi WSW 6.9 mph - N/A   Scattered Clouds
8:46 AM 66.2 °F - 66.2 °F 100% 29.80 in 5.0 mi West 9.2 mph - N/A   Scattered Clouds
9:14 AM 68.0 °F - 66.2 °F 94% 29.80 in 7.0 mi West 6.9 mph - N/A   Scattered Clouds
9:34 AM 69.8 °F - 66.2 °F 88% 29.80 in 10.0 mi West 8.1 mph - N/A   Clear
9:54 AM 71.6 °F - 64.4 °F 78% 29.79 in 10.0 mi West 10.4 mph - N/A   Clear
10:14 AM 71.6 °F - 64.4 °F 78% 29.79 in 10.0 mi West 6.9 mph - N/A   Clear
10:34 AM 71.6 °F - 62.6 °F 73% 29.79 in 10.0 mi WSW 5.8 mph - N/A   Scattered Clouds
10:54 AM 71.6 °F - 62.6 °F 73% 29.79 in 10.0 mi SW 4.6 mph - N/A   Clear
11:14 AM 73.4 °F - 62.6 °F 69% 29.78 in 10.0 mi SW 6.9 mph - N/A   Clear
11:34 AM 75.2 °F - 62.6 °F 65% 29.78 in 10.0 mi WSW 8.1 mph - N/A   Clear
11:54 AM 75.2 °F - 62.6 °F 65% 29.77 in 10.0 mi SW 8.1 mph - N/A   Clear
12:14 PM 75.2 °F - 62.6 °F 65% 29.77 in 10.0 mi SW 8.1 mph - N/A   Clear
12:34 PM 77.0 °F - 62.6 °F 61% 29.76 in 10.0 mi WSW 9.2 mph - N/A   Clear
12:54 PM 77.0 °F - 62.6 °F 61% 29.76 in 10.0 mi West 10.4 mph - N/A   Clear
1:14 PM 75.2 °F - 62.6 °F 65% 29.75 in 10.0 mi WSW 6.9 mph - N/A   Clear
1:34 PM 75.2 °F - 64.4 °F 69% 29.75 in 10.0 mi SW 8.1 mph - N/A   Clear
1:54 PM 77.0 °F - 64.4 °F 65% 29.75 in 10.0 mi SW 8.1 mph - N/A   Clear
2:14 PM 77.0 °F - 64.4 °F 65% 29.75 in 10.0 mi SW 11.5 mph - N/A   Clear
2:34 PM 78.8 °F - 64.4 °F 61% 29.74 in 10.0 mi SW 8.1 mph - N/A   Clear
2:54 PM 78.8 °F - 66.2 °F 65% 29.73 in 10.0 mi SW 6.9 mph - N/A   Clear
3:14 PM 77.0 °F - 66.2 °F 69% 29.73 in 10.0 mi SW 6.9 mph - N/A   Clear
3:34 PM 77.0 °F - 66.2 °F 69% 29.72 in 10.0 mi SW 6.9 mph - N/A   Scattered Clouds
3:54 PM 80.6 °F 82.7 °F 66.2 °F 61% 29.71 in 10.0 mi SW 8.1 mph - N/A   Clear
4:10 PM 80.6 °F 82.7 °F 66.2 °F 61% 29.71 in 10.0 mi SSW 6.9 mph - N/A   Clear
4:34 PM 80.6 °F 82.7 °F 66.2 °F 61% 29.69 in 10.0 mi SSW 5.8 mph - N/A Thunderstorm Clear
4:54 PM 73.4 °F - 62.6 °F 69% 29.71 in 2.0 mi NW 12.7 mph - 0.23 in Rain , Thunderstorm Heavy Thunderstorms and Rain
5:14 PM 71.6 °F - 62.6 °F 73% 29.71 in 7.0 mi West 13.8 mph 18.4 mph 0.24 in Rain , Thunderstorm Light Thunderstorms and Rain
5:34 PM 69.8 °F - 64.4 °F 83% 29.72 in 10.0 mi NNE 4.6 mph - 0.31 in Rain , Thunderstorm Light Thunderstorms and Rain
5:54 PM 71.6 °F - 66.2 °F 83% 29.71 in 10.0 mi Calm Calm - 0.31 in Thunderstorm Unknown
6:14 PM 73.4 °F - 66.2 °F 78% 29.71 in 10.0 mi Calm Calm - N/A   Clear
6:34 PM 73.4 °F - 64.4 °F 73% 29.71 in 10.0 mi Calm Calm - N/A   Clear
6:54 PM 73.4 °F - 66.2 °F 78% 29.70 in 10.0 mi NW 6.9 mph - N/A   Clear
7:14 PM 73.4 °F - 66.2 °F 78% 29.69 in 10.0 mi WNW 5.8 mph - N/A   Clear
7:34 PM 71.6 °F - 66.2 °F 83% 29.69 in 10.0 mi WNW 5.8 mph - N/A   Clear
7:54 PM 71.6 °F - 66.2 °F 83% 29.69 in 10.0 mi West 6.9 mph 17.3 mph N/A   Clear
8:14 PM 71.6 °F - 64.4 °F 78% 29.69 in 10.0 mi WNW 6.9 mph - N/A   Clear
8:34 PM 69.8 °F - 64.4 °F 83% 29.70 in 10.0 mi West 8.1 mph - N/A   Clear
8:54 PM 69.8 °F - 66.2 °F 88% 29.71 in 10.0 mi WNW 9.2 mph - N/A   Clear
9:14 PM 68.0 °F - 64.4 °F 88% 29.72 in 10.0 mi WNW 6.9 mph - N/A   Clear
9:34 PM 66.2 °F - 64.4 °F 94% 29.72 in 10.0 mi WNW 5.8 mph - N/A   Clear
9:55 PM 66.2 °F - 64.4 °F 94% 29.73 in 10.0 mi WNW 5.8 mph - N/A   Clear
10:14 PM 66.2 °F - 64.4 °F 94% 29.73 in 10.0 mi WNW 5.8 mph - N/A   Clear
10:34 PM 66.2 °F - 64.4 °F 94% 29.73 in 10.0 mi WNW 5.8 mph - N/A   Clear
11:14 PM 66.2 °F - 64.4 °F 94% 29.73 in 7.0 mi WNW 5.8 mph - N/A   Clear
11:34 PM 64.4 °F - 64.4 °F 100% 29.73 in 7.0 mi WNW 4.6 mph - N/A   Clear
11:54 PM 66.2 °F - 64.4 °F 94% 29.73 in 7.0 mi West 6.9 mph - N/A   Clear